Theta_e
308 308 308 308 309 309 307 306 306 306 307 306 306 307 307 306 306 306 307 307 307 307 308 308 308 308 309 309 309 311 311 311 316 318 319 318 315 314 314 313 313 312 312 313 315 315 315 316 315 316 318 317 319 320 320 320 320 321 321 316 312 314 314 315 318 317 318 318 317 316 316 316 317 316 315 314 315 315 315 315 314 313 313 313 313 312 312 313
307 307 307 308 309 310 309 308 307 306 307 307 307 308 308 307 306 306 307 307 307 307 308 308 308 309 309 310 310 312 311 312 317 319 318 316 314 314 314 312 313 312 313 315 315 315 315 315 316 316 315 317 318 320 320 320 320 320 318 315 314 316 315 315 317 318 318 318 317 316 315 315 316 316 315 315 316 316 316 316 314 313 314 314 313 312 313 313
306 306 307 307 309 311 310 309 307 307 307 307 308 308 308 308 306 306 308 308 307 308 308 308 308 310 310 310 312 312 314 317 317 317 316 315 314 314 313 313 313 312 313 315 315 315 315 315 315 315 315 316 317 318 319 319 319 318 318 317 316 316 314 315 316 317 317 316 316 316 315 314 315 315 315 315 315 316 316 315 314 314 314 313 313 313 313 313
307 308 308 307 309 309 309 309 308 307 306 306 307 308 309 309 308 307 307 308 309 308 308 309 309 311 311 312 313 313 319 322 317 316 315 314 314 313 313 313 313 313 314 314 314 315 315 316 315 315 315 316 315 316 317 317 318 318 317 317 316 315 315 315 315 316 316 315 316 316 315 315 315 314 314 315 316 317 315 313 313 313 313 312 312 312 313 313
309 310 309 307 308 308 307 308 308 307 307 307 307 308 308 309 310 309 308 308 309 309 310 310 311 312 312 314 314 314 319 319 314 316 315 314 314 313 313 313 313 313 314 314 315 315 315 316 315 315 315 315 315 316 315 316 317 317 316 316 315 315 316 316 315 316 315 315 315 315 315 315 315 314 314 315 315 316 314 311 311 311 311 311 311 312 313 313
311 311 309 309 309 308 307 306 307 307 308 308 307 308 308 308 310 311 310 309 311 312 312 312 313 313 314 315 313 315 319 315 314 316 314 314 314 313 313 313 314 314 314 315 315 315 316 315 315 315 315 315 315 315 315 315 316 317 316 315 316 315 316 316 315 315 314 314 314 315 315 314 314 315 315 314 314 314 311 311 310 310 310 310 311 312 312 312
311 311 311 311 309 308 309 306 305 307 308 308 307 308 309 309 310 312 313 312 313 314 314 314 314 315 315 315 315 318 319 314 314 314 313 314 313 313 314 313 314 314 314 316 316 316 315 314 314 315 315 315 315 315 315 316 315 317 317 316 316 316 315 316 315 314 314 314 314 314 314 313 314 315 314 313 312 311 309 310 310 310 310 311 311 311 311 312
311 311 312 312 310 309 309 306 307 308 307 308 308 309 310 310 310 311 314 314 314 315 315 315 315 316 315 316 320 319 316 316 314 312 313 313 313 313 313 313 314 314 315 316 316 316 315 315 315 314 315 315 315 315 315 315 317 317 317 316 315 315 315 315 315 314 314 314 314 313 313 314 315 314 313 312 311 310 310 310 310 310 310 310 310 310 311 312
311 311 312 312 311 310 310 309 310 311 310 309 308 309 310 310 311 312 314 315 315 315 316 316 316 316 314 317 320 314 316 318 313 313 314 314 314 313 313 315 315 315 316 316 316 316 315 315 315 314 316 316 315 316 315 316 317 316 316 316 315 315 315 315 314 314 314 314 313 313 314 315 313 313 312 311 310 310 309 309 310 310 310 309 309 309 311 311
312 312 312 311 311 312 311 311 312 312 312 310 309 310 311 310 312 312 313 315 315 316 316 316 316 315 316 319 317 313 318 317 315 316 315 315 316 314 315 316 316 315 316 316 315 316 315 315 315 315 315 315 315 315 315 316 315 315 315 315 315 315 315 315 315 315 315 314 313 313 315 315 312 312 313 310 309 310 309 310 309 310 310 309 309 309 310 311
312 312 311 311 312 313 313 312 313 313 313 312 310 310 311 311 312 313 314 316 316 315 315 315 315 315 317 319 315 315 320 319 318 318 317 317 317 316 316 316 315 316 317 316 316 316 315 316 316 315 315 316 315 315 315 314 314 314 314 315 315 316 315 315 316 315 315 314 313 313 315 314 311 312 313 310 309 310 310 310 309 310 310 309 308 308 309 310
313 313 312 313 314 315 315 314 313 312 312 312 311 311 311 312 313 314 315 316 316 315 314 315 314 315 317 317 315 317 318 319 321 320 319 319 317 317 316 315 315 315 316 317 317 316 314 315 315 314 315 316 316 316 314 313 313 314 314 316 317 317 317 316 316 314 314 313 312 313 314 313 312 313 312 309 309 311 311 310 310 310 309 309 308 308 309 309
313 313 313 314 315 316 315 314 313 312 312 312 312 312 312 313 313 315 316 317 316 314 315 315 314 315 317 316 316 316 315 316 320 320 319 318 317 317 316 315 314 314 315 316 317 315 313 314 315 314 315 316 317 315 313 313 313 314 315 316 317 318 318 316 314 313 313 312 311 313 314 315 315 313 311 309 309 311 311 311 310 310 309 308 308 308 308 308
312 312 313 315 316 315 315 314 315 314 313 312 312 312 313 314 314 315 317 316 316 315 315 316 315 315 317 316 314 315 314 315 318 318 317 317 316 316 314 315 314 313 314 314 315 313 312 314 314 315 314 314 315 313 313 315 314 316 317 316 317 317 316 315 314 314 314 311 311 313 314 315 315 313 311 310 310 311 312 312 311 310 309 308 308 308 308 308
312 311 313 315 315 314 315 315 316 316 315 313 312 312 313 315 316 316 316 316 317 317 315 316 316 316 317 316 315 315 314 315 318 318 316 316 317 317 315 314 313 313 313 313 313 312 313 314 314 315 314 313 314 314 317 317 317 317 316 316 318 317 316 316 314 314 315 312 311 313 314 316 315 312 312 310 310 311 312 313 311 310 309 308 308 308 308 308
313 312 312 314 314 314 316 317 316 316 315 313 313 314 315 316 317 317 316 316 316 315 316 318 317 316 318 317 316 316 315 316 319 319 317 316 317 318 315 314 314 313 313 313 312 312 314 315 315 316 314 314 315 317 318 318 318 319 317 316 318 318 318 317 314 313 315 314 313 314 315 317 315 312 311 310 310 311 312 313 311 310 309 308 308 307 307 308
313 312 312 313 314 315 315 316 316 316 315 313 313 315 316 316 317 316 315 315 315 315 317 319 317 316 317 316 316 317 317 318 319 319 317 315 316 316 315 315 314 314 314 313 313 314 315 315 314 315 316 316 317 318 318 318 317 318 318 317 317 318 317 316 314 314 313 314 315 315 315 317 316 313 311 310 311 311 312 312 310 309 309 308 308 307 307 307
313 312 312 313 314 315 315 316 317 316 315 313 313 315 316 316 316 316 316 315 315 315 315 316 316 318 317 316 316 316 317 317 317 317 316 314 314 315 315 315 315 315 314 314 314 314 315 315 315 316 317 317 317 318 318 318 317 317 318 318 317 317 316 316 316 315 314 314 316 316 316 317 316 314 311 311 310 311 313 312 310 309 308 308 307 307 307 307
313 312 313 314 315 315 315 316 316 316 314 314 315 316 316 316 315 316 318 317 316 317 317 316 317 317 316 316 316 315 316 316 316 317 316 314 313 314 315 315 315 315 315 316 316 315 316 317 316 317 319 318 318 318 318 320 319 318 318 317 317 316 316 318 317 314 314 316 316 317 317 317 317 315 312 311 310 311 312 310 309 309 307 307 307 307 307 306
313 314 314 315 315 315 315 316 316 315 314 315 317 317 319 319 319 320 319 317 317 318 318 318 318 317 316 316 316 314 314 315 316 317 315 313 313 314 314 315 315 315 316 318 318 316 316 318 319 318 319 320 319 318 318 319 318 318 318 317 317 316 316 318 317 313 314 315 317 317 317 317 318 317 315 311 310 311 311 310 310 309 308 307 307 307 307 306
314 315 315 316 316 317 317 317 317 316 314 315 318 319 319 320 320 319 319 318 318 318 318 318 318 317 316 316 315 314 315 315 315 317 315 313 314 315 315 315 315 316 317 318 318 315 315 318 319 319 319 319 319 319 318 318 317 317 317 316 317 317 317 319 317 313 313 315 316 317 317 317 317 317 316 311 311 312 311 311 310 309 308 307 307 307 306 305
313 315 316 317 317 318 319 318 318 316 314 315 317 319 320 320 317 315 316 319 320 319 319 318 318 317 315 315 315 314 316 316 315 316 315 313 314 316 315 315 316 317 317 317 317 316 317 318 319 319 319 317 317 317 317 317 317 317 317 317 317 317 318 318 316 313 312 314 317 317 317 317 317 317 316 312 312 312 311 311 310 309 308 307 307 306 306 305
314 316 316 317 318 319 319 318 317 316 314 315 317 319 319 317 314 313 316 319 320 320 319 318 318 317 315 315 314 313 315 316 316 317 315 313 315 316 316 316 316 318 317 317 318 318 319 319 318 318 317 316 316 316 316 316 316 317 317 317 317 318 318 318 315 314 313 314 316 317 317 317 318 318 315 311 311 310 308 308 308 308 307 307 306 305 305 305
316 316 317 317 317 318 319 317 316 315 315 315 316 319 318 316 314 315 318 318 319 320 319 320 318 317 317 316 314 314 315 316 317 317 315 314 315 316 316 316 317 318 318 317 317 319 320 318 317 317 316 316 317 315 316 316 316 318 318 317 317 318 318 318 317 315 314 315 314 315 318 318 319 320 316 310 308 308 306 306 306 306 306 305 305 304 304 305
317 317 317 316 316 319 318 316 316 315 315 316 316 317 317 317 315 315 318 318 319 320 320 320 319 318 317 316 315 314 315 315 316 317 315 315 316 315 316 316 317 318 318 317 317 318 318 316 315 317 316 316 317 316 316 317 317 317 318 318 317 318 318 318 318 317 318 319 316 316 321 321 319 321 319 312 308 308 306 305 306 305 304 303 303 304 303 303
317 318 317 316 317 319 316 316 317 316 316 316 316 316 316 317 316 315 317 318 320 321 319 319 319 318 317 316 314 314 316 316 315 317 315 315 315 315 315 315 315 317 317 317 317 318 317 314 315 317 317 317 318 317 317 317 317 318 319 318 317 318 319 319 319 319 321 322 316 314 321 323 319 319 318 313 310 310 307 306 306 305 304 303 303 304 303 302
318 318 316 316 318 318 316 317 317 316 316 316 316 316 315 316 315 315 317 320 324 323 321 319 318 318 318 317 315 315 318 316 314 315 314 314 314 314 315 316 315 315 316 317 319 319 316 314 316 318 317 318 318 317 318 317 317 320 320 319 318 318 319 320 320 319 320 321 317 314 318 322 321 320 318 314 313 312 309 307 307 306 304 303 304 303 303 302
319 318 317 317 318 318 317 317 317 316 316 316 316 316 315 315 315 316 319 325 327 323 322 318 315 315 317 316 316 316 315 315 316 314 310 311 313 313 315 316 316 315 315 317 320 319 317 316 318 318 318 319 318 318 319 317 318 320 318 317 318 318 319 319 320 320 319 320 320 318 318 321 322 320 317 315 315 315 313 310 308 306 305 304 303 303 302 302
319 319 318 318 318 318 317 317 317 316 316 315 316 315 315 315 316 318 321 325 326 322 320 317 314 315 315 315 316 315 313 313 315 312 309 310 312 312 314 315 316 317 315 315 319 320 316 313 315 317 318 319 317 316 318 319 319 317 315 316 317 317 318 318 319 319 318 319 321 321 319 321 323 319 317 316 316 317 316 312 309 307 306 304 303 302 302 301
319 319 319 319 318 317 317 317 317 317 315 314 315 315 315 316 317 321 323 326 326 321 317 315 316 316 316 316 317 315 314 313 312 310 311 312 311 311 312 313 314 316 316 315 318 317 312 309 312 315 317 316 313 311 312 316 316 315 316 317 317 317 316 317 317 317 320 321 322 321 319 321 322 320 319 319 317 317 317 313 311 308 306 304 303 302 301 301
320 319 319 319 319 317 317 318 317 317 315 314 316 315 316 319 321 325 326 325 323 321 316 315 317 317 317 319 319 316 315 314 311 312 313 312 312 313 313 314 315 317 317 317 317 316 314 313 314 314 312 313 313 312 311 312 313 316 317 318 319 319 317 317 318 317 321 325 321 318 319 321 322 321 318 317 315 315 315 313 311 308 306 304 303 302 301 301
320 319 319 319 319 317 317 318 317 317 315 314 316 316 319 323 324 327 326 320 321 322 319 318 318 318 318 320 322 318 315 315 313 314 315 313 314 314 315 317 318 319 321 320 319 319 317 316 316 313 311 312 316 316 312 311 313 316 318 318 321 323 321 322 322 320 323 323 316 314 317 320 321 319 317 316 313 312 313 312 311 308 306 304 303 302 301 301
320 320 319 320 319 318 317 318 317 316 315 315 317 319 323 323 324 326 324 321 323 322 319 319 318 319 320 322 322 318 316 317 314 315 316 316 317 316 316 317 318 321 324 322 321 321 321 319 317 315 313 312 315 318 316 314 314 315 318 319 323 326 326 326 325 323 324 320 313 313 316 318 319 318 317 314 311 309 308 309 310 308 306 304 303 302 301 300
320 320 319 319 319 318 317 317 316 316 315 315 318 321 323 323 324 325 323 322 321 318 318 318 319 320 321 322 321 318 318 318 314 315 317 317 318 319 318 317 318 321 322 322 323 322 324 324 319 317 316 313 315 318 319 318 314 315 318 319 322 325 327 327 325 324 324 318 313 314 317 319 319 316 312 309 306 306 305 306 308 308 306 304 303 302 301 300
321 320 319 319 319 318 317 316 316 316 314 316 320 322 322 323 324 324 323 322 319 317 317 318 320 322 323 322 319 317 320 319 315 315 317 318 319 320 320 318 318 319 321 323 324 322 325 326 319 316 315 314 316 317 318 318 317 316 317 318 321 322 321 321 319 318 318 318 316 315 317 318 317 312 308 306 306 305 304 305 306 306 305 303 302 302 301 300
320 319 319 319 318 318 317 316 316 315 314 317 322 322 321 323 324 323 322 321 320 318 318 319 321 323 324 323 319 317 319 319 317 316 317 318 319 319 320 320 318 318 320 323 324 323 324 324 317 313 313 313 314 315 316 318 319 317 317 318 318 317 317 318 317 314 314 319 321 317 317 317 316 313 309 307 307 306 305 305 305 305 304 303 303 302 302 301
319 318 318 318 318 318 317 315 315 314 314 319 322 322 321 322 323 323 322 321 320 319 319 321 322 322 324 324 321 319 318 318 317 318 319 319 319 319 320 320 319 318 319 321 323 323 323 322 316 313 315 311 309 312 314 314 316 316 317 317 315 315 316 317 320 319 318 322 322 319 319 319 319 318 312 308 309 308 306 305 305 305 304 303 303 303 302 301
318 318 318 318 318 318 316 315 315 314 315 320 321 321 321 322 322 322 321 319 319 319 320 322 322 322 323 324 323 320 319 320 318 318 320 320 320 320 319 319 319 317 317 319 321 321 322 323 317 313 315 311 307 312 314 312 312 313 315 316 316 318 319 318 320 322 323 324 323 321 319 319 320 319 314 312 312 310 307 306 305 305 304 303 304 303 302 301
318 318 319 319 317 317 316 315 315 315 317 320 320 319 321 321 322 322 321 319 319 320 321 322 322 322 322 323 323 320 319 320 319 318 321 320 320 320 318 319 319 317 317 317 319 320 320 323 320 313 312 311 309 312 316 314 311 311 313 315 315 317 319 318 319 320 322 324 324 322 320 319 319 319 317 316 314 311 309 306 306 305 304 304 304 303 302 301
318 319 320 319 317 317 316 314 315 317 318 319 319 318 319 320 321 321 320 320 321 320 321 323 322 321 322 322 322 321 319 320 320 319 320 320 320 320 318 318 319 318 317 317 318 319 318 321 322 315 311 312 312 314 316 316 313 311 313 316 315 315 315 316 318 318 319 321 323 324 322 320 317 316 316 316 315 313 310 307 307 306 305 304 304 304 303 302
318 321 321 318 317 317 315 315 317 318 317 317 318 317 317 319 320 320 320 320 321 321 321 324 326 325 324 323 323 321 320 320 320 319 321 320 319 320 319 317 318 318 317 317 317 319 319 319 320 316 312 314 315 314 314 315 315 314 314 316 316 316 316 318 320 318 316 318 321 321 323 321 314 311 312 312 312 313 311 309 308 307 306 305 304 304 303 302
318 322 321 318 317 316 316 317 318 319 317 316 317 317 317 318 319 321 321 321 322 321 319 321 325 326 327 325 325 323 320 321 321 320 321 320 320 321 317 314 316 316 316 317 318 319 319 318 319 317 315 315 315 312 310 311 314 314 315 316 316 316 316 319 322 319 316 317 317 317 320 320 312 308 308 308 307 308 309 309 309 308 307 306 305 305 304 302
320 321 319 317 317 316 316 319 319 318 317 315 315 316 316 317 318 321 322 321 321 322 321 321 322 324 325 324 324 323 321 321 321 321 322 322 320 317 313 312 315 315 316 317 317 317 317 317 319 319 317 315 313 312 311 310 312 314 314 314 316 317 317 318 318 317 317 318 317 317 321 319 311 306 306 306 305 305 306 308 309 309 307 306 305 304 303 302
317 317 316 316 317 316 318 320 319 317 316 316 316 316 316 316 317 319 321 321 321 322 322 322 321 322 324 324 322 322 320 321 322 321 321 322 319 312 310 313 315 316 317 318 319 318 317 318 320 321 320 319 317 316 315 313 312 313 314 314 315 317 318 317 315 315 318 320 319 320 322 319 311 306 306 305 305 305 305 305 307 308 307 306 305 304 303 302
315 316 315 314 314 316 319 321 319 317 316 316 317 317 317 317 317 318 319 320 321 321 322 323 323 323 324 322 321 321 320 321 323 321 319 321 317 311 310 312 314 316 317 320 322 319 317 320 320 321 323 324 323 321 320 316 313 313 315 315 316 317 317 316 316 317 319 320 320 320 321 318 312 308 308 307 307 307 306 304 304 306 306 305 304 303 303 302
316 318 316 315 313 314 317 319 319 319 317 317 318 317 317 318 318 318 318 319 320 320 322 323 322 323 323 322 322 322 320 320 321 321 319 319 317 311 309 309 311 313 314 318 322 318 316 320 321 321 323 322 320 320 319 317 315 315 316 315 315 316 316 316 316 318 318 319 320 320 319 318 314 310 310 309 308 308 308 306 304 304 304 304 304 303 302 302
315 318 317 317 317 316 315 316 318 320 319 318 319 318 318 318 319 319 319 320 320 320 321 321 320 322 322 322 323 323 321 320 319 319 319 318 315 310 308 308 310 311 312 316 319 317 316 319 321 321 322 319 316 316 317 318 318 317 317 316 315 315 316 316 317 318 319 319 319 319 319 320 317 312 311 311 309 309 309 308 305 304 304 303 303 303 302 300
312 315 314 314 316 318 317 316 317 318 320 320 319 319 319 319 319 320 319 319 320 320 321 320 319 320 321 321 323 323 322 320 318 318 318 318 315 311 310 311 311 310 311 314 316 317 316 317 319 321 320 319 317 315 316 317 318 317 317 317 316 315 315 316 316 317 319 319 319 319 318 319 318 314 313 313 311 310 309 308 306 305 304 303 302 302 301 299
307 309 308 308 312 315 315 315 316 316 317 318 319 320 320 319 319 319 318 319 319 319 320 320 320 320 320 321 323 322 321 320 319 317 317 316 315 313 313 314 312 309 311 315 315 316 317 317 319 320 319 319 319 316 316 316 315 316 317 317 317 316 315 315 315 315 317 318 318 318 317 317 316 315 314 314 312 311 309 307 306 305 303 302 301 301 300 299
307 307 307 307 308 308 309 312 315 315 314 315 317 317 318 319 319 318 318 319 319 319 319 320 320 319 320 321 322 322 320 319 319 317 315 315 315 313 314 315 313 309 311 314 315 315 316 317 318 318 318 319 316 314 314 315 315 315 316 315 316 317 317 315 314 315 316 316 316 316 317 316 315 314 314 313 311 309 308 306 306 305 303 302 301 301 300 298
302 301 303 308 309 307 308 310 313 315 314 312 313 314 315 317 319 319 318 316 317 318 318 319 320 319 319 319 320 321 319 317 318 316 313 314 315 314 314 314 313 310 311 312 314 314 314 315 315 316 319 318 314 312 313 313 314 315 315 315 315 316 317 315 314 314 315 315 315 315 316 316 314 314 313 311 309 308 308 308 306 305 304 302 301 301 300 299
300 300 302 307 310 308 307 308 309 313 314 312 312 313 313 314 316 318 318 314 314 316 315 317 319 317 316 317 318 319 317 316 317 315 313 314 315 315 315 315 313 312 311 311 312 312 312 314 314 315 318 315 309 310 312 312 315 316 316 315 315 315 315 314 314 314 314 315 315 316 316 315 313 313 312 309 308 309 309 308 307 306 304 302 302 302 301 301
Wind_Speed
2 2 2 2 2 2 2 3 3 3 3 3 3 3 2 3 3 3 2 2 1 1 1 1 2 3 4 5 7 8 10 9 5 3 1 1 3 7 5 4 4 4 4 3 1 2 2 2 1 1 3 1 1 1 0 1 1 2 2 3 2 1 2 2 2 2 3 5 6 3 2 4 1 2 1 2 5 5 5 2 7 9 9 9 8 7 8 9
2 2 2 2 2 2 2 2 3 3 3 3 3 3 3 3 3 3 2 2 2 2 1 1 2 2 4 6 7 9 11 7 4 1 3 2 7 7 5 6 5 4 4 2 2 3 3 1 1 3 3 1 0 0 2 1 2 2 2 3 0 3 3 2 2 4 2 3 4 3 1 3 3 2 1 4 3 4 6 4 9 8 9 8 9 9 9 10
3 2 1 1 1 2 2 2 2 2 2 3 3 3 3 3 3 4 3 3 3 2 2 1 2 3 4 6 7 9 11 6 5 1 4 5 7 6 6 7 5 5 4 2 2 3 3 1 1 3 3 1 1 0 2 1 2 1 2 3 3 4 4 3 2 4 3 2 1 2 2 3 2 2 2 4 7 7 3 3 4 4 5 6 8 9 9 9
2 2 1 1 2 2 2 3 3 3 3 3 3 3 3 4 4 4 4 3 2 2 2 1 2 3 4 6 7 9 9 6 3 5 5 7 8 7 7 6 4 4 3 1 0 1 1 1 2 3 4 1 2 1 1 2 2 1 2 2 5 3 3 4 3 3 3 2 2 1 0 4 1 1 4 4 8 5 4 7 4 3 6 6 7 7 7 8
2 2 2 2 3 3 3 3 3 3 4 4 5 4 4 4 3 3 3 3 2 2 1 1 2 3 4 5 7 8 7 4 3 6 6 7 7 7 6 5 4 4 3 1 0 1 2 2 2 2 3 2 2 2 1 3 2 1 0 3 5 1 1 5 3 3 2 1 2 3 3 2 0 4 5 5 7 1 5 6 4 4 5 5 6 6 6 7
4 3 3 3 4 3 3 3 4 4 4 5 5 5 4 4 2 2 3 2 1 1 2 2 2 3 4 4 6 6 6 2 4 6 7 7 7 6 5 5 3 3 2 2 2 2 3 2 3 3 2 1 2 1 2 3 2 2 2 3 2 1 0 4 4 3 2 3 4 4 2 2 4 6 3 3 3 4 5 4 5 4 4 4 4 5 6 7
5 4 4 4 5 4 4 4 4 4 4 4 4 4 4 4 3 2 2 2 1 1 2 3 3 3 3 4 5 4 5 1 4 7 7 7 6 6 5 4 2 2 2 4 3 4 3 4 4 2 3 2 2 1 2 1 3 4 1 4 2 1 2 1 3 4 4 5 4 2 2 5 8 5 2 2 3 6 5 5 5 5 4 3 4 5 6 7
7 6 5 5 5 5 5 5 4 5 5 5 5 5 5 4 4 3 2 2 2 2 3 3 3 3 2 3 4 4 4 0 4 7 8 6 5 6 4 3 2 2 4 6 4 4 3 5 3 1 4 1 0 1 2 2 5 4 2 3 3 2 4 2 3 5 6 6 4 3 5 8 7 3 3 4 5 5 5 5 4 4 4 4 5 6 6 7
8 7 6 7 5 5 5 4 4 5 5 5 6 5 5 5 5 4 3 2 2 2 3 3 2 2 1 2 4 4 2 3 4 6 7 6 6 6 4 3 3 3 4 4 3 5 3 3 2 1 4 2 1 1 1 4 3 1 2 1 2 3 4 4 5 7 7 5 4 6 9 8 4 2 3 4 5 5 5 4 4 3 3 4 5 6 6 6
9 8 7 7 5 4 5 4 4 5 5 6 6 6 6 6 5 4 3 3 3 3 3 3 2 2 1 2 4 4 1 5 4 5 6 7 6 5 5 4 4 5 5 3 3 4 2 3 2 1 4 1 1 0 1 3 2 2 3 3 6 6 5 6 7 7 5 5 7 8 9 4 5 4 4 5 6 6 6 5 4 3 3 5 4 5 5 6
10 8 6 5 5 4 4 4 5 5 6 6 6 6 6 6 5 4 3 3 3 3 3 2 2 2 1 4 6 3 2 4 4 4 6 7 6 5 6 5 4 5 5 3 3 2 2 2 1 1 2 0 2 2 1 1 2 2 3 6 8 8 8 9 9 6 4 4 6 8 7 3 6 5 3 7 8 7 6 5 4 3 3 4 4 4 4 5
11 9 6 5 6 5 3 6 8 7 6 6 6 6 6 6 5 4 4 3 3 4 3 3 3 3 2 5 6 2 3 4 4 5 6 6 7 7 6 6 5 4 4 4 3 2 2 0 3 4 1 1 2 2 1 1 1 2 3 7 7 8 10 9 6 4 4 3 4 6 5 6 9 6 6 8 7 7 6 5 5 3 3 3 3 3 4 5
12 10 6 5 7 6 6 8 9 9 7 6 6 6 6 5 5 4 3 3 3 3 3 3 4 3 3 5 2 3 4 5 5 5 6 6 5 5 5 6 6 5 4 4 1 4 3 1 4 3 1 3 2 2 2 3 2 3 5 5 6 9 7 5 4 4 5 3 5 5 4 5 10 8 8 7 8 8 7 5 5 4 3 3 3 3 3 4
13 12 8 7 8 8 7 7 8 10 11 9 6 6 6 5 5 4 2 2 2 3 3 3 4 4 4 3 1 3 6 6 6 6 7 6 4 4 4 4 4 4 3 1 2 5 4 2 2 2 2 3 1 3 3 4 4 4 4 4 5 7 2 7 5 5 5 3 6 6 5 2 9 9 7 6 8 8 7 6 5 3 4 3 3 3 3 4
14 12 11 11 10 7 6 7 8 10 13 12 7 5 5 4 3 2 1 2 2 3 3 3 5 4 4 4 1 3 6 6 6 7 8 8 5 3 4 4 3 3 3 3 5 6 4 3 3 3 2 1 1 3 5 5 5 5 4 5 5 4 3 7 5 4 3 3 7 7 5 2 8 9 7 6 7 8 6 5 5 4 4 3 3 3 3 4
15 13 11 12 9 6 6 8 9 10 14 13 5 2 2 2 0 1 2 2 2 4 4 3 5 3 6 3 2 2 4 6 7 9 10 9 5 3 6 6 6 5 4 5 6 6 3 3 2 2 1 2 4 5 5 5 5 5 5 6 5 4 4 4 4 3 2 3 7 8 6 2 7 9 7 6 7 8 6 5 5 4 4 3 3 2 2 3
16 15 13 11 9 7 6 7 8 9 14 10 3 2 2 1 3 3 3 4 4 4 3 1 4 3 4 2 2 3 4 6 8 8 10 10 6 5 8 7 6 6 7 7 5 5 3 3 1 1 3 4 5 4 5 6 6 5 5 5 6 7 7 3 3 4 4 4 6 8 9 8 4 11 9 7 7 7 7 6 6 5 4 3 3 2 2 3
16 15 14 12 9 7 6 7 8 9 13 6 1 1 2 4 4 3 4 6 6 4 1 2 3 4 4 5 3 2 5 6 7 7 9 11 8 8 8 5 6 9 8 6 5 6 4 3 2 4 5 5 6 6 6 7 7 6 4 4 6 6 7 7 2 5 6 5 6 7 9 11 6 10 10 8 8 8 6 6 5 5 5 4 3 3 2 2
16 15 14 11 9 7 6 7 8 10 9 2 1 3 5 3 1 2 4 4 4 3 2 4 8 3 0 6 5 5 7 7 7 6 8 9 9 8 6 5 8 8 6 5 6 7 5 3 4 5 7 8 9 9 10 11 8 8 5 6 8 6 7 7 1 6 4 4 7 9 10 12 10 8 10 9 7 7 6 5 5 5 5 4 4 3 3 3
17 16 14 11 9 8 6 7 8 9 6 1 0 1 2 1 3 3 5 6 9 9 4 3 10 5 1 5 8 8 8 7 4 4 8 10 10 10 7 6 7 6 6 6 6 5 4 5 6 8 10 10 11 13 14 11 6 6 6 7 9 8 8 8 2 6 2 3 7 10 11 13 13 9 9 10 7 8 8 7 7 6 6 5 5 5 4 4
17 17 15 12 12 11 10 11 8 7 4 3 2 4 2 2 3 1 3 8 14 16 12 7 6 5 0 5 9 10 6 3 3 5 10 11 11 10 8 8 7 6 8 7 4 3 3 7 10 12 13 9 7 10 12 9 5 7 8 8 9 7 9 8 2 5 3 3 7 10 12 12 13 12 7 11 9 9 10 9 9 8 7 5 5 6 5 4
19 18 16 14 13 12 14 15 10 5 5 5 6 8 5 6 2 4 2 6 11 17 16 10 5 5 3 6 9 8 3 5 6 7 12 12 11 9 8 9 9 7 7 7 4 3 6 9 13 14 8 3 1 4 7 9 8 8 7 7 8 6 8 7 3 5 3 2 5 7 10 11 12 13 7 11 9 7 7 6 7 7 7 6 6 6 5 5
18 18 16 14 12 13 16 16 8 4 6 9 9 9 5 6 2 4 3 6 7 11 14 12 11 11 9 6 8 10 7 9 8 10 15 13 10 9 8 10 11 9 9 10 8 7 7 8 12 12 5 5 5 4 6 7 7 8 7 7 7 6 7 6 3 4 4 4 5 6 9 10 13 12 7 7 5 5 4 3 3 4 5 5 5 5 5 6
18 18 17 14 12 14 16 13 6 5 9 11 13 12 6 4 2 5 3 6 8 7 10 11 10 12 12 7 11 14 10 10 9 10 18 15 9 7 8 10 11 10 9 13 14 13 11 3 3 9 8 8 9 7 8 7 6 9 10 8 8 8 8 7 2 0 4 7 5 6 9 9 11 13 8 5 3 4 5 5 5 4 4 3 3 3 3 4
20 19 17 16 15 16 16 10 7 8 10 12 16 16 12 6 3 6 3 5 8 4 3 6 6 9 11 9 13 13 8 11 10 10 19 17 11 7 6 7 8 11 12 14 14 14 13 2 4 8 8 9 10 8 10 8 7 8 11 12 11 11 9 9 5 3 6 6 4 4 7 5 4 9 8 6 5 6 7 7 8 7 6 4 4 5 4 3
22 20 18 18 18 18 15 7 8 10 11 12 13 11 12 10 3 4 2 4 8 4 4 6 7 9 12 11 14 9 4 9 4 9 18 13 8 4 5 6 4 8 10 10 9 7 4 4 5 8 8 9 9 9 10 9 8 7 4 8 11 11 9 9 6 2 5 5 2 3 6 5 2 4 6 8 7 8 8 8 9 8 7 7 6 6 6 6
23 22 21 21 23 24 15 4 9 12 8 9 11 11 11 12 8 4 1 5 8 5 8 4 4 8 10 12 17 10 2 4 6 7 10 7 6 2 5 9 5 5 4 4 6 3 6 8 6 7 8 9 9 9 10 10 8 4 2 2 5 7 8 8 7 6 6 5 2 5 6 7 7 5 6 8 8 9 10 10 10 9 9 9 8 7 8 7
26 25 24 22 26 30 18 7 12 13 8 2 3 12 13 11 10 4 2 6 5 5 6 2 2 4 6 11 17 9 1 6 7 3 3 2 5 3 7 13 9 9 8 7 7 2 6 10 10 11 10 8 7 5 7 11 8 2 3 2 1 2 5 6 6 6 5 5 5 7 6 6 8 4 5 6 6 9 10 11 12 12 11 11 10 9 9 8
29 28 29 25 26 30 22 12 12 11 13 7 1 8 14 11 8 2 1 5 2 4 3 3 4 4 7 10 13 7 3 2 1 1 4 2 2 0 5 10 9 10 11 12 11 1 2 4 5 10 10 7 4 3 2 7 5 3 5 5 5 2 1 3 5 5 4 6 8 8 8 6 7 4 6 4 5 9 9 9 11 12 12 11 10 10 9 8
31 32 33 30 28 30 24 16 15 12 13 12 7 7 15 9 4 4 4 5 3 2 3 4 5 7 12 12 9 7 5 2 3 5 6 4 3 2 2 2 5 7 7 10 10 2 4 2 1 4 4 2 5 7 6 2 4 7 7 5 4 3 2 2 4 3 5 8 9 10 13 10 6 4 6 3 1 3 6 8 10 12 12 11 10 10 9 9
35 34 35 34 32 32 22 13 19 19 12 11 8 11 12 3 1 6 7 2 2 2 5 5 6 11 16 14 9 9 9 4 7 9 7 5 6 6 4 3 4 5 5 8 8 4 4 3 2 1 1 3 6 6 4 3 4 6 5 4 4 3 3 3 4 4 7 9 4 3 8 11 8 4 2 3 3 4 4 7 12 13 13 11 10 9 9 9
39 36 37 37 35 33 23 13 21 25 16 12 12 10 5 1 3 8 6 3 0 6 9 8 9 12 16 14 8 10 10 6 9 10 8 8 8 9 10 9 7 6 7 8 7 5 5 7 6 4 1 4 6 5 4 2 3 5 5 6 5 4 4 5 5 6 7 5 1 2 1 6 8 8 5 3 6 4 3 3 10 14 13 11 10 9 9 8
42 39 39 38 36 34 27 19 22 25 20 17 13 5 2 5 8 11 9 5 2 2 6 9 11 13 16 13 7 9 8 5 10 11 8 10 9 9 12 12 12 8 5 6 8 5 4 6 8 7 2 7 10 8 5 4 6 8 8 7 7 6 6 7 6 7 6 2 2 1 3 4 6 7 6 2 7 5 5 4 7 12 13 12 11 10 9 9
41 40 40 41 40 36 29 23 24 27 24 18 10 5 6 8 9 10 12 10 2 3 4 8 12 13 14 10 6 10 7 4 10 10 7 10 9 9 12 14 17 11 3 5 7 7 6 4 8 11 6 10 15 11 7 7 8 9 8 7 8 7 6 7 6 6 4 2 2 2 3 4 4 2 1 4 6 4 4 5 6 10 11 11 11 10 10 10
38 41 41 40 39 36 32 28 28 30 26 15 7 8 11 10 7 7 10 10 5 3 4 8 11 11 11 7 5 10 6 3 10 9 6 10 9 9 11 12 16 13 7 7 4 6 10 5 5 6 2 12 16 8 5 7 7 7 6 6 8 6 4 3 1 1 1 1 3 4 3 4 2 3 4 4 4 4 5 5 7 10 11 11 10 10 10 10
36 39 37 36 36 37 36 31 32 33 24 11 6 8 11 9 4 5 8 10 9 7 8 8 8 7 9 6 6 10 5 1 10 9 6 10 10 10 11 9 14 16 12 9 4 5 7 3 5 4 1 8 8 3 5 4 3 6 6 6 4 1 1 1 1 2 0 5 4 6 5 4 2 3 5 6 5 5 5 5 8 9 11 11 9 9 10 10
33 29 27 32 36 39 39 36 38 34 17 9 12 10 9 8 4 3 3 5 8 12 10 7 8 8 10 7 7 12 8 4 10 9 5 8 8 11 14 9 13 19 17 11 5 4 6 2 3 5 4 2 3 1 3 2 1 5 5 6 4 2 2 2 4 2 3 8 4 6 8 7 5 4 4 6 7 8 7 7 8 10 11 11 9 10 11 11
25 17 16 27 37 39 40 41 41 28 9 8 15 12 8 8 7 3 1 2 5 12 10 9 9 10 10 9 8 13 12 7 10 9 7 7 6 11 16 10 11 19 20 12 4 3 6 3 2 3 3 3 1 2 4 1 1 0 2 4 4 2 5 5 5 5 6 8 5 6 8 8 8 5 5 8 10 10 10 9 9 11 12 11 11 12 12 11
16 7 7 21 35 38 42 44 34 17 5 8 13 12 7 8 9 5 2 2 2 7 12 11 9 10 10 10 9 13 14 10 11 9 8 7 5 9 16 11 9 16 20 14 5 3 5 5 3 2 2 5 4 5 8 7 3 1 2 4 2 2 4 5 5 4 5 7 6 4 4 5 7 7 9 12 12 12 12 11 11 12 13 12 11 12 13 12
10 3 2 18 34 40 44 38 21 9 8 9 10 9 8 8 10 9 7 5 3 4 7 8 10 11 11 12 10 10 11 10 10 8 8 9 6 7 13 13 10 13 17 14 7 4 4 3 3 2 3 5 5 7 10 10 9 6 6 7 6 3 1 2 4 3 3 5 5 6 5 3 2 3 5 7 8 11 13 12 11 11 12 12 12 13 13 13
5 4 3 21 38 43 38 22 9 8 10 9 10 9 7 6 8 13 11 7 5 2 1 2 6 6 5 8 8 8 8 8 9 8 6 9 9 6 7 8 9 12 12 9 8 6 5 5 5 4 5 7 4 2 3 4 8 9 9 10 10 7 5 4 5 3 1 3 3 5 7 2 2 2 3 4 3 5 9 10 9 10 12 13 12 13 13 12
3 5 6 26 45 42 25 9 6 8 9 10 8 5 5 2 4 11 11 7 6 4 1 2 3 2 2 3 2 3 6 6 8 8 6 8 10 6 1 1 5 13 11 6 8 6 1 3 6 4 5 5 1 2 2 3 4 5 6 7 8 8 8 7 6 4 3 3 1 2 5 2 2 3 4 5 5 5 4 6 7 8 11 11 11 11 12 11
3 5 6 28 50 40 15 7 8 7 8 8 3 3 6 4 4 7 9 8 8 5 4 4 4 5 4 2 1 3 6 5 6 6 6 6 5 1 1 1 4 12 10 6 7 4 3 2 6 4 3 3 2 1 1 1 3 4 5 4 6 9 8 5 2 2 3 5 3 3 7 3 2 2 3 3 4 4 2 3 6 6 7 9 10 10 11 11
2 3 3 21 45 36 12 7 9 8 9 8 6 8 9 7 9 9 9 11 10 6 7 7 6 6 4 3 3 4 6 6 6 6 4 4 2 2 1 3 4 8 7 3 5 8 4 4 7 6 4 4 4 4 5 4 4 6 6 6 8 8 5 3 1 1 4 6 7 6 8 2 3 1 1 2 3 3 3 3 4 6 6 8 9 9 10 11
2 2 1 8 23 20 8 6 9 10 11 11 12 15 13 9 12 14 13 13 10 8 7 6 5 6 3 2 3 4 7 5 4 4 2 1 1 1 2 3 3 4 3 4 0 7 6 4 8 10 9 9 8 7 7 7 6 5 6 8 10 10 8 5 3 5 6 5 8 9 7 2 3 1 1 1 2 3 4 5 4 5 6 7 8 9 10 10
2 2 2 3 5 5 3 3 7 9 11 13 11 13 16 13 10 11 13 12 11 12 9 3 3 5 4 6 7 7 10 7 1 2 4 3 2 1 2 3 3 1 1 3 1 3 2 2 8 11 7 4 3 2 5 11 9 8 8 10 11 11 10 6 4 6 5 3 6 10 6 3 4 5 4 4 5 5 5 6 6 6 7 8 8 9 9 9
2 2 4 3 2 4 3 2 6 8 11 13 9 8 15 17 10 8 11 11 10 13 10 3 4 8 9 11 11 9 10 10 5 4 6 4 2 1 2 2 2 3 3 2 0 2 2 5 10 10 4 2 2 3 4 11 12 12 12 13 12 10 10 11 10 7 5 2 7 7 9 10 10 9 9 8 8 7 6 7 8 7 8 8 8 9 10 10
2 1 1 0 0 4 5 5 7 9 11 12 9 7 13 17 14 10 10 9 7 10 8 4 9 16 15 13 12 8 8 9 8 8 7 5 4 2 1 1 1 2 2 1 1 1 2 6 8 8 6 2 3 3 2 4 6 7 11 13 13 12 13 15 14 9 7 7 9 6 12 15 11 9 11 10 9 8 8 7 7 7 8 9 9 10 11 11
1 0 1 2 1 2 3 2 4 7 9 8 8 9 12 16 18 12 7 6 6 9 11 11 15 18 18 15 12 8 8 9 9 9 7 6 5 5 3 1 2 1 1 2 0 1 2 4 3 6 8 5 3 1 1 0 0 3 8 12 13 14 15 14 14 14 12 13 12 6 8 12 9 8 9 6 4 4 5 5 6 7 8 9 10 10 11 11
1 1 1 1 1 0 1 1 4 4 5 3 4 7 9 14 18 13 7 8 9 10 13 17 19 16 15 16 13 12 14 13 10 9 10 9 7 6 6 4 3 2 2 3 2 1 2 3 2 3 6 5 3 3 2 1 1 4 8 12 14 13 13 13 14 13 12 14 12 8 10 12 7 7 5 3 4 4 5 6 7 7 8 9 9 10 10 11
1 1 1 1 2 2 1 1 2 3 5 3 2 3 6 11 15 13 6 4 7 9 12 19 20 11 8 13 16 16 14 9 6 7 12 13 9 7 6 4 6 6 4 3 3 3 3 2 2 3 5 3 1 2 3 4 2 6 13 17 16 11 9 11 11 10 12 14 10 8 11 10 4 7 5 4 5 6 8 9 8 6 8 9 9 10 10 10
2 1 1 1 2 3 3 1 2 4 6 5 5 6 6 8 9 10 6 1 1 3 5 13 15 7 5 13 17 13 7 8 5 3 6 7 4 4 3 4 7 8 7 5 3 3 4 4 3 4 5 1 2 2 5 4 1 6 11 11 13 12 11 11 10 11 13 13 8 8 11 6 5 7 6 6 7 9 10 9 8 7 9 9 9 9 9 10
Wind_Direction
158 170 174 172 193 208 206 212 216 208 210 218 218 217 214 209 199 210 225 214 200 208 275 315 319 327 332 334 345 341 340 344 329 312 292 247 152 148 136 124 122 109 104 95 222 260 240 205 106 275 247 200 315 44 96 359 329 264 247 243 240 175 131 123 154 114 111 127 125 118 32 306 250 134 135 249 223 226 268 193 99 78 77 76 65 35 21 19
186 196 198 183 199 230 227 222 219 221 223 214 216 216 214 222 215 218 232 233 223 216 238 267 289 325 333 336 348 337 340 338 270 302 47 144 157 147 124 115 108 94 90 49 303 300 297 292 25 274 265 216 73 33 207 5 312 282 287 248 220 69 84 64 76 89 90 117 117 122 55 317 316 31 37 280 240 233 267 178 130 113 101 82 58 41 31 30
201 203 222 208 213 244 249 246 230 230 244 234 225 216 218 228 225 223 223 223 219 214 230 250 297 331 333 342 343 333 340 314 242 97 79 127 136 135 122 111 95 91 86 14 332 324 325 345 291 273 271 237 82 214 214 25 312 315 289 257 94 86 102 95 94 89 65 70 150 148 81 293 299 5 312 298 294 268 263 84 130 137 85 51 44 36 29 33
205 203 220 247 257 262 272 275 252 232 242 246 236 225 223 225 227 224 219 220 220 227 232 262 311 332 333 343 334 333 334 286 216 107 120 130 123 128 123 112 99 89 79 359 350 337 304 271 264 276 268 226 110 228 216 50 339 338 300 333 91 114 148 133 130 90 71 32 302 310 251 269 245 322 291 295 291 262 93 49 14 4 24 26 36 31 28 33
210 221 220 239 262 270 273 275 270 250 240 239 236 234 231 229 236 227 219 224 227 241 254 286 306 328 330 336 332 337 323 275 127 124 151 140 132 136 133 123 107 81 90 201 155 217 237 237 248 258 257 222 154 219 133 70 339 265 356 47 97 174 167 131 130 98 88 336 285 258 258 288 21 271 269 274 286 331 74 43 35 31 29 32 29 27 32 34
214 228 228 237 251 263 262 264 269 263 255 246 238 238 241 241 250 252 236 229 230 270 288 295 310 325 326 330 332 330 304 282 131 169 172 157 152 143 150 139 104 80 123 234 270 250 244 238 238 237 252 240 214 253 88 96 302 270 142 115 134 235 144 129 135 136 159 241 241 251 295 344 278 265 254 267 304 67 71 60 73 68 57 47 41 42 40 38
222 232 244 251 253 258 258 257 258 261 260 256 249 244 249 251 253 267 265 246 250 291 291 297 313 322 328 326 319 294 274 292 152 189 181 177 175 161 169 154 129 116 199 260 262 252 253 246 247 247 259 246 221 202 86 142 232 272 214 143 148 215 239 153 142 162 195 232 241 273 323 270 259 259 216 203 90 88 92 85 86 84 80 65 60 53 44 43
228 232 247 261 266 270 269 266 269 272 264 261 257 246 252 254 251 263 273 258 251 266 280 294 315 328 345 330 310 268 255 97 144 187 189 194 191 187 186 170 191 178 240 267 279 280 264 250 254 240 257 267 297 168 106 248 219 246 286 129 145 216 232 215 185 203 214 231 240 239 255 251 246 255 221 175 111 107 112 103 105 103 91 75 60 51 48 44
231 231 238 249 266 283 286 285 287 289 280 272 261 247 253 253 250 256 268 269 251 257 272 282 295 303 325 314 297 278 264 101 136 188 194 201 205 204 193 190 226 220 244 263 272 274 256 259 268 260 299 14 300 282 122 262 232 245 347 102 198 229 226 228 233 233 223 226 215 223 250 241 203 209 216 156 123 126 127 121 127 126 95 74 61 52 47 44
232 233 236 241 261 292 302 294 290 305 299 279 264 256 258 255 253 254 264 272 256 253 256 266 267 249 290 270 254 266 80 109 147 190 197 207 208 204 203 210 227 232 243 240 243 260 269 308 12 17 316 332 228 336 143 270 344 18 340 291 263 255 245 232 239 242 226 224 207 228 261 226 145 206 218 136 141 149 142 138 134 138 100 75 67 59 47 47
230 233 234 238 262 294 304 281 286 302 299 290 272 263 267 266 262 258 267 270 257 254 249 250 233 221 265 252 250 262 120 132 165 183 191 198 192 191 210 214 213 235 249 237 234 266 313 328 36 218 301 182 179 174 184 338 5 344 317 288 260 246 245 232 234 236 220 224 206 227 261 179 148 211 188 126 150 164 157 146 138 140 100 81 68 62 47 42
226 229 229 235 263 299 286 267 286 291 285 291 281 269 273 274 273 268 272 269 251 251 241 232 220 203 235 251 252 242 157 161 175 183 188 189 189 194 206 205 199 221 257 264 236 206 282 279 207 234 350 329 229 176 154 112 303 293 283 286 276 253 245 226 217 212 211 203 173 209 244 208 192 183 126 130 155 166 167 158 147 139 110 98 77 67 56 40
223 223 218 228 253 273 261 263 291 301 290 285 286 282 273 271 276 278 281 268 246 242 229 219 202 179 236 256 221 194 203 198 190 187 190 184 183 190 197 202 198 202 240 282 235 172 205 203 232 246 23 292 276 88 138 171 224 269 246 267 293 273 239 175 153 172 195 162 156 206 263 213 181 149 121 138 160 169 177 169 158 149 131 121 98 88 77 61
224 217 204 224 240 244 256 271 293 307 302 291 284 281 275 270 276 284 278 245 225 232 218 202 187 177 238 256 146 215 222 209 194 181 181 167 150 155 168 185 196 204 213 236 173 165 173 168 233 201 83 313 12 116 218 208 216 259 260 242 257 273 194 134 144 178 182 154 173 213 276 223 150 136 128 143 166 179 187 170 161 158 139 132 124 123 104 89
228 222 206 217 227 234 260 275 281 294 301 296 285 280 279 269 276 286 228 205 211 207 179 177 183 188 258 246 194 236 214 198 189 181 177 161 157 158 144 144 134 156 160 148 154 142 139 172 206 196 114 51 168 207 254 246 230 235 262 251 226 246 173 141 148 198 197 155 181 209 270 213 146 145 134 139 174 189 200 176 158 159 146 142 138 129 119 109
224 226 219 212 213 232 249 269 277 286 299 298 285 289 289 278 287 181 180 166 164 163 147 176 188 222 283 245 158 209 200 196 193 195 193 174 179 168 134 131 119 118 120 123 137 130 139 187 219 294 152 186 221 239 261 259 249 221 230 262 249 247 240 163 142 202 218 165 187 209 260 286 140 149 143 146 178 192 203 185 164 162 149 145 146 136 136 127
222 220 224 213 207 222 229 260 270 282 299 299 282 314 321 77 110 139 141 139 133 129 141 175 168 218 267 181 190 221 179 183 187 194 203 190 186 165 145 142 136 128 119 120 144 155 172 188 167 260 220 230 236 234 249 249 253 227 208 249 262 257 261 245 152 156 178 203 217 211 242 275 166 150 160 166 176 195 203 190 173 164 157 152 148 146 147 138
225 217 220 211 199 211 226 257 266 283 301 297 248 313 84 101 116 119 124 135 116 104 166 182 171 235 237 182 192 158 122 149 169 174 193 187 176 170 165 162 152 147 143 145 177 186 193 193 195 241 231 226 221 212 224 237 264 274 240 251 269 251 243 255 227 152 174 206 243 233 238 263 229 159 165 172 176 199 203 182 173 166 162 159 159 161 146 140
223 216 217 206 196 212 229 250 264 284 296 285 124 99 95 86 118 157 176 171 156 179 226 175 188 237 289 160 136 90 107 132 146 159 173 167 160 169 175 168 165 173 178 178 186 188 196 193 195 236 235 221 215 213 227 245 276 300 291 286 286 272 254 266 147 131 186 226 244 252 253 264 257 192 169 170 181 199 193 170 170 171 169 169 168 169 158 150
218 215 213 204 199 207 221 239 254 277 279 185 61 135 132 202 208 196 193 208 223 231 281 196 200 234 62 133 127 114 117 129 143 159 161 159 158 165 170 168 174 198 215 203 185 172 191 215 213 224 232 234 228 220 232 254 285 297 287 281 275 270 270 273 135 122 169 256 251 257 260 264 269 250 185 165 179 193 192 185 182 180 175 179 175 167 167 149
214 214 212 211 210 209 225 233 234 268 255 176 221 230 251 268 232 261 184 215 226 231 256 242 220 266 201 121 142 146 132 158 181 162 162 166 168 172 174 177 186 206 216 206 168 122 190 224 227 230 238 251 252 230 233 249 261 266 269 270 265 257 265 270 156 124 142 241 262 264 264 258 264 266 198 161 184 196 196 195 190 185 174 177 177 171 167 141
212 212 211 214 221 227 235 226 216 266 245 189 222 237 298 337 332 7 349 253 233 221 237 241 238 261 187 133 162 173 200 197 175 167 171 173 183 192 179 180 206 210 186 177 164 179 217 230 232 236 237 214 249 241 237 247 250 256 256 255 260 255 264 263 158 133 162 233 272 271 272 265 266 266 198 171 198 190 185 193 183 183 177 180 181 172 169 157
210 209 207 210 226 240 234 219 210 256 218 200 223 228 280 321 345 8 312 279 263 212 217 221 221 225 203 178 176 183 209 207 198 183 175 178 191 204 191 186 215 214 179 186 206 220 226 237 233 224 201 188 215 219 221 242 244 241 240 241 250 244 256 256 164 133 186 234 285 293 283 271 268 260 195 164 188 146 142 179 171 184 186 179 172 167 174 169
211 208 209 206 221 234 221 203 194 220 208 211 230 230 260 307 5 356 305 271 268 215 202 211 216 220 207 176 169 185 211 222 223 183 171 181 181 189 208 202 215 220 202 205 214 231 238 259 209 196 192 215 226 212 208 231 240 230 228 232 247 245 243 254 253 108 234 233 245 271 280 271 253 241 202 139 146 161 168 183 184 196 188 158 148 162 176 169
213 212 212 206 218 221 203 189 198 210 203 215 236 236 242 258 345 351 318 270 255 219 182 203 207 213 194 149 159 181 214 227 228 173 168 186 179 165 203 206 221 226 217 214 219 240 242 191 133 182 191 213 222 220 208 215 245 242 223 219 240 256 257 266 282 321 285 260 196 224 274 281 227 223 199 151 168 189 181 189 194 185 177 174 176 176 173 162
215 213 208 208 218 206 188 200 215 199 198 221 238 231 225 229 267 331 301 275 260 212 137 180 180 180 171 155 160 158 215 227 218 145 163 187 191 169 204 190 212 239 226 218 227 251 228 143 157 181 183 200 215 229 208 202 241 260 222 203 228 256 263 265 267 256 278 285 140 193 267 278 241 219 182 158 182 186 176 194 194 178 177 182 182 176 170 169
218 213 207 213 215 197 181 197 191 176 189 231 233 221 218 213 219 277 261 265 264 174 145 181 182 171 164 161 162 150 198 171 103 134 163 180 185 168 232 196 177 233 221 197 228 226 152 159 174 178 191 205 213 231 210 197 230 260 44 160 212 243 252 248 246 237 261 292 226 197 241 276 275 245 173 163 190 190 184 194 189 180 181 179 178 173 169 168
221 216 210 210 210 199 188 167 165 176 198 192 199 213 211 200 207 239 228 247 266 127 143 164 104 135 136 159 171 164 112 128 133 166 122 144 185 162 224 213 204 210 186 183 220 193 152 179 184 184 201 213 214 237 195 191 220 247 68 73 144 235 258 244 239 243 256 278 253 207 204 254 267 235 161 168 212 220 202 191 186 184 180 177 176 170 165 163
219 220 216 210 208 204 199 186 173 195 212 202 309 207 185 179 195 203 231 236 230 105 128 130 122 131 131 160 184 171 112 123 184 142 102 139 220 115 228 228 235 220 194 204 228 268 107 192 199 197 211 215 182 49 82 193 211 143 112 92 88 100 226 221 236 248 244 251 254 225 197 228 275 240 178 178 235 234 207 183 183 182 175 174 171 165 163 159
217 221 220 210 203 200 200 205 204 208 210 218 253 185 161 165 181 172 202 226 222 126 105 133 157 155 150 159 183 186 170 131 82 130 145 159 184 220 281 265 252 230 201 219 240 256 95 86 306 220 223 189 110 68 34 40 126 139 143 119 118 150 157 202 233 242 254 252 247 232 213 216 272 259 192 184 243 196 165 168 176 170 168 169 165 163 162 158
218 217 217 208 199 194 193 201 203 205 210 215 205 157 154 172 170 188 203 237 300 165 134 149 149 147 162 167 172 191 190 152 134 153 156 149 172 194 192 177 207 215 214 228 236 213 166 170 173 153 111 112 111 94 54 51 122 158 168 159 167 182 172 216 220 202 248 254 237 239 222 214 233 250 164 108 85 104 130 166 171 165 165 164 159 161 160 157
219 215 214 208 201 196 197 199 195 201 207 189 165 151 161 185 210 220 205 102 174 184 153 153 157 161 177 182 178 179 177 166 165 173 171 168 179 191 196 191 173 185 223 222 208 201 209 206 172 120 135 181 159 136 102 98 184 193 183 179 198 219 208 224 217 206 236 245 107 72 190 217 236 249 244 135 113 105 74 139 164 163 161 157 155 157 155 155
219 215 210 208 205 198 200 204 195 194 189 167 156 157 180 185 211 221 203 171 176 159 133 147 167 174 179 189 190 164 166 172 172 180 184 181 191 202 208 210 194 201 239 201 188 190 202 205 178 160 182 199 191 183 169 170 185 192 188 183 198 215 227 236 227 229 236 217 69 105 168 233 251 251 254 132 104 97 70 77 146 156 154 151 152 154 153 157
220 214 207 209 210 204 200 200 195 185 170 157 155 172 188 210 224 212 207 216 213 71 113 149 161 172 181 191 174 154 168 183 168 176 184 182 202 210 207 214 210 216 245 196 196 196 209 232 183 178 172 178 193 211 206 175 176 194 196 196 209 216 237 245 231 240 242 127 111 154 176 223 221 174 86 88 92 92 88 88 118 140 144 143 148 153 157 162
223 215 208 206 206 204 200 197 195 181 162 153 166 180 193 216 225 206 209 215 195 110 119 145 149 168 189 195 165 168 190 202 171 177 193 193 207 210 201 207 206 206 208 208 209 195 220 252 156 156 147 170 184 211 200 169 172 190 192 206 222 228 245 263 252 259 6 27 192 185 221 249 190 124 118 124 123 116 110 114 128 137 141 142 152 160 164 169
221 213 209 203 200 201 197 191 188 177 161 156 183 192 206 217 211 198 205 209 198 150 126 153 165 180 196 189 176 185 193 178 174 180 208 211 221 221 212 205 197 199 200 198 195 182 212 247 117 113 77 173 185 188 172 184 175 167 186 200 201 351 330 233 215 115 65 277 236 171 218 255 200 172 149 145 155 147 143 149 151 150 148 152 164 169 172 175
213 206 205 204 200 197 191 185 179 173 164 175 193 204 213 214 212 193 203 227 193 154 145 190 192 187 199 194 185 186 178 159 175 185 197 198 223 224 214 213 197 200 204 205 219 203 206 236 142 163 172 146 346 4 153 330 23 151 189 181 125 43 334 256 250 227 221 256 247 178 211 222 205 207 151 154 177 175 173 168 163 165 161 165 176 176 178 177
208 200 209 209 201 193 187 181 173 168 166 187 202 221 219 206 215 199 78 319 179 166 187 221 198 186 200 203 188 177 176 175 176 189 193 184 215 205 194 206 204 200 205 210 241 221 204 228 167 166 175 125 43 200 169 206 318 157 235 163 136 212 216 198 226 246 234 243 251 210 213 220 217 205 157 178 195 186 178 173 174 178 175 177 181 179 180 176
203 196 233 207 197 190 183 176 167 164 189 188 202 225 219 209 213 192 164 242 236 198 210 223 215 206 209 216 201 169 175 187 168 177 202 190 202 188 180 193 204 201 201 198 211 198 189 228 212 143 111 136 152 204 194 184 177 335 263 190 176 248 221 200 209 234 240 240 252 233 206 218 223 203 181 192 195 179 171 174 186 190 185 183 180 179 181 181
188 199 245 186 187 186 179 172 164 171 198 195 205 216 206 209 211 199 189 199 245 246 222 229 229 225 221 222 213 172 178 197 176 181 208 185 181 190 184 191 196 196 196 192 204 199 166 225 223 127 120 161 180 205 201 189 179 181 197 192 188 186 197 258 231 224 246 244 247 254 252 229 192 194 191 189 182 172 171 179 188 189 187 186 184 184 184 185
165 239 205 170 178 178 172 170 176 181 193 209 219 221 213 212 214 211 201 192 222 264 336 267 235 237 233 215 206 171 171 200 191 192 211 191 200 210 186 197 193 174 175 186 205 206 185 199 199 161 179 200 207 210 221 222 198 191 196 196 192 185 175 209 219 199 218 252 247 264 271 253 105 41 35 67 85 140 161 175 180 182 186 187 190 190 188 188
158 232 174 164 172 169 165 183 193 177 201 213 213 221 212 207 223 210 195 185 219 227 230 257 221 217 233 212 222 167 162 196 199 198 218 208 211 217 126 328 191 163 157 181 197 191 159 198 195 178 183 197 186 43 6 311 266 231 225 209 195 191 191 205 214 177 172 225 278 295 277 273 81 33 46 64 51 59 106 157 171 181 187 187 190 189 187 188
192 203 141 163 170 165 164 209 187 182 218 205 191 227 208 215 228 205 191 189 203 201 195 219 215 217 223 186 171 188 178 200 206 202 226 222 209 186 57 323 196 170 169 185 185 156 66 188 192 171 143 144 110 118 145 330 289 251 244 220 207 206 199 207 222 127 182 203 161 212 248 241 82 29 38 68 71 69 85 149 162 169 177 183 186 183 182 183
186 169 95 170 173 168 171 205 184 200 217 193 197 216 212 228 224 209 200 193 190 189 198 213 213 215 228 166 157 192 191 204 220 213 220 219 193 55 29 263 231 192 188 193 173 166 166 190 187 181 183 182 189 208 210 198 200 221 223 210 215 207 164 131 103 128 230 207 170 212 245 198 108 69 62 83 93 124 135 141 163 163 162 174 178 177 181 177
151 150 14 183 180 177 190 196 182 199 208 200 208 210 207 221 220 215 213 203 198 197 200 220 211 186 178 149 158 199 199 201 221 213 197 206 206 36 357 303 281 220 236 337 31 175 185 192 188 195 201 198 204 219 208 180 176 209 210 194 207 204 175 159 175 211 228 187 167 213 239 142 116 156 174 155 167 165 146 145 172 173 163 171 173 177 182 175
185 204 186 188 205 215 226 190 182 193 201 204 212 210 208 216 216 208 209 210 209 204 203 212 179 164 171 183 189 207 209 204 181 197 204 189 177 36 8 337 325 293 295 345 359 177 190 224 210 215 216 198 218 236 133 136 159 191 187 182 197 202 189 183 207 216 203 161 199 219 220 201 190 189 206 210 195 199 180 162 172 179 175 177 177 179 180 173
228 216 178 170 218 227 236 235 199 195 196 197 200 202 206 215 217 196 200 212 207 203 210 208 174 192 194 192 202 212 204 201 198 205 206 182 141 18 3 357 341 345 345 329 255 132 163 219 220 222 219 112 40 338 132 150 174 185 179 185 195 191 184 196 216 210 141 169 242 201 180 221 220 187 197 204 190 204 203 177 177 184 184 182 178 177 177 168
233 217 193 246 262 208 218 221 208 211 207 195 196 205 205 210 213 200 198 211 202 193 201 208 210 213 206 198 208 208 188 199 211 208 199 170 142 140 64 359 300 326 354 333 328 72 182 222 222 215 217 148 81 345 318 155 173 180 180 190 192 188 190 200 216 215 170 210 244 174 173 217 227 195 200 198 186 198 194 175 174 174 172 173 170 177 183 177
197 41 344 335 325 205 202 170 174 212 221 208 208 214 208 209 211 207 190 185 196 198 198 211 220 217 212 211 212 200 186 194 208 208 194 175 163 158 153 214 240 258 89 137 14 3 197 221 213 201 223 220 137 128 292 79 220 225 212 207 201 199 197 197 211 217 209 228 245 219 207 233 232 205 200 185 160 165 146 142 155 161 163 167 171 183 191 189
174 223 135 74 306 358 28 107 143 186 225 233 229 222 219 216 211 207 189 179 199 202 198 214 222 213 209 213 213 215 210 202 206 201 178 170 178 181 185 186 162 154 169 165 166 217 205 201 162 170 214 220 148 118 112 103 235 252 249 235 222 210 198 198 211 214 216 236 244 239 251 255 226 176 160 122 103 111 132 164 174 168 165 166 176 189 192 193
104 15 108 149 195 163 127 139 154 191 217 213 220 228 234 232 219 209 198 190 209 206 201 215 220 207 197 209 214 220 212 187 185 186 172 176 182 179 182 170 148 160 176 169 161 171 183 171 125 162 198 204 108 119 114 69 34 269 259 245 229 214 192 195 211 208 210 228 233 229 247 249 173 134 136 141 153 165 180 188 182 172 169 173 187 196 194 194
117 37 43 210 215 164 155 133 149 204 220 205 204 208 219 245 238 217 213 208 183 214 225 221 215 191 173 205 213 214 174 131 122 136 163 182 170 136 142 147 152 163 170 168 160 161 168 161 147 174 182 173 9 134 128 90 60 259 255 229 208 213 211 202 213 215 211 217 218 220 236 231 128 138 165 169 180 195 200 193 180 175 178 185 195 194 190 191